User: anonymous   Login
Location: Unspecified
(0.0000°N, 0.0000°E)
Time: 11:01:50
(UTC+00:00)
Language:

Vela 4A - Orbit

View from above orbital plane
View from above orbital plane
View from above satellite
View from above satellite

Ground track
Ground track

The orbit data is extracted from the following two-line orbital elements,

1  2765U 67040A   17160.35972952 -.00000844 +00000-0 +00000-0 0  9991
2  2765 009.5795 031.2927 4777987 178.5699 000.8787 00.21457679039312
Epoch (UTC): 09 June 2017 08:38:00
Eccentricity: 0.4777987
inclination: 9.5795°
perigee height: 55165 km
apogee height: 167785 km
right ascension of ascending node: 31.2927°
argument of perigee: 178.5699°
revolutions per day: 0.21457679
mean anomaly at epoch: 0.8787°
orbit number at epoch: 3931

The dashed part of the orbit path shows where the satellite is in the earth's shadow,  

DLR